Time,TemperatureF,DewpointF,PressureIn,WindDirection,WindDirectionDegrees,WindSpeedMPH,WindSpeedGustMPH,Humidity,HourlyPrecipIn,Conditions,Clouds,dailyrainin,SoftwareType,DateUTC
2013-03-18 00:03:00,28.0,20.0,30.07,ESE,106,17.0,23.0,72,0.00,,,0.00,,2013-03-18 04:03:00,
2013-03-18 00:13:00,28.0,20.0,30.07,ESE,106,17.0,23.0,72,0.00,,,0.00,,2013-03-18 04:13:00,
2013-03-18 00:23:00,28.0,20.0,30.06,ESE,105,18.0,23.0,73,0.00,,,0.00,,2013-03-18 04:23:00,
2013-03-18 00:33:00,28.0,21.0,30.05,ESE,106,12.0,21.0,74,0.00,,,0.00,,2013-03-18 04:33:00,
2013-03-18 00:42:00,28.0,21.0,30.05,ESE,106,12.0,21.0,74,0.00,,,0.00,,2013-03-18 04:42:00,
2013-03-18 00:53:00,27.0,20.0,30.04,ESE,115,15.0,18.0,74,0.00,,,0.00,,2013-03-18 04:53:00,
2013-03-18 01:03:00,27.0,20.0,30.04,ESE,117,10.0,20.0,75,0.00,,,0.00,,2013-03-18 05:03:00,
2013-03-18 01:12:00,27.0,20.0,30.04,ESE,117,10.0,20.0,75,0.00,,,0.00,,2013-03-18 05:12:00,
2013-03-18 01:22:00,27.0,20.0,30.04,East,100,9.0,20.0,75,0.00,,,0.00,,2013-03-18 05:22:00,
2013-03-18 01:32:00,27.0,20.0,30.03,ESE,103,9.0,23.0,76,0.00,,,0.00,,2013-03-18 05:32:00,
2013-03-18 01:43:00,27.0,20.0,30.03,ESE,103,9.0,23.0,76,0.00,,,0.00,,2013-03-18 05:43:00,
2013-03-18 01:52:00,27.0,20.0,30.03,SE,124,13.0,18.0,76,0.00,,,0.00,,2013-03-18 05:52:00,
2013-03-18 02:02:00,27.0,21.0,30.02,East,95,10.0,15.0,77,0.00,,,0.00,,2013-03-18 06:02:00,
2013-03-18 02:12:00,27.0,21.0,30.02,East,95,10.0,15.0,77,0.00,,,0.00,,2013-03-18 06:12:00,
2013-03-18 02:22:00,27.0,21.0,30.01,ESE,115,10.0,14.0,78,0.00,,,0.00,,2013-03-18 06:22:00,
2013-03-18 02:32:00,26.0,20.0,30.01,ESE,112,13.0,17.0,77,0.00,,,0.00,,2013-03-18 06:32:00,
2013-03-18 02:42:00,26.0,20.0,30.01,ESE,112,13.0,17.0,77,0.00,,,0.00,,2013-03-18 06:42:00,
2013-03-18 02:53:00,26.0,20.0,30.01,ESE,112,9.0,16.0,79,0.00,,,0.00,,2013-03-18 06:53:00,
2013-03-18 03:02:00,26.0,20.0,30.00,ESE,122,13.0,18.0,78,0.00,,,0.00,,2013-03-18 07:02:00,
2013-03-18 03:12:00,26.0,20.0,30.00,ESE,122,13.0,18.0,78,0.00,,,0.00,,2013-03-18 07:12:00,
2013-03-18 03:23:00,26.0,20.0,29.98,ESE,102,12.0,18.0,79,0.00,,,0.00,,2013-03-18 07:23:00,
2013-03-18 03:33:00,26.0,21.0,29.98,ESE,119,10.0,16.0,80,0.00,,,0.00,,2013-03-18 07:33:00,
2013-03-18 03:42:00,26.0,21.0,29.98,ESE,119,10.0,16.0,80,0.00,,,0.00,,2013-03-18 07:42:00,
2013-03-18 03:53:00,26.0,21.0,29.97,East,101,13.0,17.0,80,0.00,,,0.00,,2013-03-18 07:53:00,
2013-03-18 04:02:00,26.0,21.0,29.96,ENE,74,11.0,17.0,80,0.00,,,0.00,,2013-03-18 08:02:00,
2013-03-18 04:12:00,26.0,21.0,29.96,ENE,74,11.0,17.0,80,0.00,,,0.00,,2013-03-18 08:12:00,
2013-03-18 04:22:00,26.0,21.0,29.96,East,95,9.0,19.0,81,0.00,,,0.00,,2013-03-18 08:22:00,
2013-03-18 04:32:00,26.0,21.0,29.94,ENE,71,11.0,15.0,81,0.00,,,0.00,,2013-03-18 08:32:00,
2013-03-18 04:43:00,26.0,21.0,29.94,ENE,71,11.0,15.0,81,0.00,,,0.00,,2013-03-18 08:43:00,
2013-03-18 04:53:00,26.0,21.0,29.93,East,92,10.0,13.0,81,0.00,,,0.00,,2013-03-18 08:53:00,
2013-03-18 05:02:00,26.0,21.0,29.91,East,98,12.0,16.0,81,0.00,,,0.00,,2013-03-18 09:02:00,
2013-03-18 05:12:00,26.0,21.0,29.91,East,98,12.0,16.0,81,0.00,,,0.00,,2013-03-18 09:12:00,
2013-03-18 05:22:00,26.0,21.0,29.91,East,96,10.0,15.0,82,0.00,,,0.00,,2013-03-18 09:22:00,
2013-03-18 05:33:00,26.0,21.0,29.89,East,81,11.0,16.0,82,0.00,,,0.00,,2013-03-18 09:33:00,
2013-03-18 05:43:00,26.0,21.0,29.89,East,81,11.0,16.0,82,0.00,,,0.00,,2013-03-18 09:43:00,
2013-03-18 05:53:00,26.0,21.0,29.88,ENE,77,15.0,18.0,82,0.00,,,0.00,,2013-03-18 09:53:00,
2013-03-18 06:03:00,26.0,21.0,29.88,ESE,114,9.0,11.0,82,0.00,,,0.00,,2013-03-18 10:03:00,
2013-03-18 06:13:00,26.0,21.0,29.88,ESE,114,9.0,11.0,82,0.00,,,0.00,,2013-03-18 10:13:00,
2013-03-18 06:23:00,26.0,22.0,29.88,East,97,8.0,15.0,83,0.00,,,0.00,,2013-03-18 10:23:00,
2013-03-18 06:33:00,26.0,22.0,29.88,ENE,75,10.0,15.0,83,0.00,,,0.00,,2013-03-18 10:33:00,
2013-03-18 06:42:00,26.0,22.0,29.88,ENE,75,10.0,15.0,83,0.00,,,0.00,,2013-03-18 10:42:00,
2013-03-18 06:53:00,26.0,22.0,29.88,ENE,78,8.0,15.0,83,0.00,,,0.00,,2013-03-18 10:53:00,
2013-03-18 07:03:00,26.0,22.0,29.87,East,84,10.0,16.0,83,0.00,,,0.00,,2013-03-18 11:03:00,
2013-03-18 07:13:00,26.0,22.0,29.87,East,84,10.0,16.0,83,0.00,,,0.00,,2013-03-18 11:13:00,
2013-03-18 07:22:00,26.0,22.0,29.85,East,88,10.0,13.0,83,0.00,,,0.00,,2013-03-18 11:22:00,
2013-03-18 07:32:00,26.0,22.0,29.85,East,90,12.0,15.0,83,0.00,,,0.00,,2013-03-18 11:32:00,
2013-03-18 07:42:00,26.0,22.0,29.85,East,90,12.0,15.0,83,0.00,,,0.00,,2013-03-18 11:42:00,
2013-03-18 07:53:00,26.0,22.0,29.83,East,89,9.0,13.0,83,0.00,,,0.00,,2013-03-18 11:53:00,
2013-03-18 08:03:00,26.0,22.0,29.82,East,95,15.0,21.0,84,0.00,,,0.00,,2013-03-18 12:03:00,
2013-03-18 08:13:00,26.0,22.0,29.82,East,95,15.0,21.0,84,0.00,,,0.00,,2013-03-18 12:13:00,
2013-03-18 08:22:00,27.0,23.0,29.82,ENE,70,12.0,16.0,84,0.00,,,0.00,,2013-03-18 12:22:00,
2013-03-18 08:32:00,26.0,22.0,29.81,East,81,13.0,17.0,86,0.00,,,0.00,,2013-03-18 12:32:00,
2013-03-18 08:43:00,26.0,22.0,29.81,East,81,13.0,17.0,86,0.00,,,0.00,,2013-03-18 12:43:00,
2013-03-18 08:52:00,26.0,22.0,29.79,ENE,78,14.0,19.0,86,0.00,,,0.00,,2013-03-18 12:52:00,
2013-03-18 09:03:00,27.0,23.0,29.78,East,82,12.0,19.0,86,0.00,,,0.00,,2013-03-18 13:03:00,
2013-03-18 09:12:00,27.0,23.0,29.78,East,82,12.0,19.0,86,0.00,,,0.00,,2013-03-18 13:12:00,
2013-03-18 09:22:00,27.0,24.0,29.76,ENE,61,14.0,19.0,87,0.00,,,0.00,,2013-03-18 13:22:00,
2013-03-18 09:33:00,27.0,24.0,29.75,East,91,12.0,20.0,88,0.00,,,0.00,,2013-03-18 13:33:00,
2013-03-18 09:42:00,27.0,24.0,29.75,East,91,12.0,20.0,88,0.00,,,0.00,,2013-03-18 13:42:00,
2013-03-18 09:52:00,27.0,24.0,29.75,East,96,11.0,17.0,88,0.00,,,0.00,,2013-03-18 13:52:00,
2013-03-18 10:02:00,28.0,25.0,29.73,East,94,16.0,21.0,88,0.00,,,0.00,,2013-03-18 14:02:00,
2013-03-18 10:12:00,28.0,25.0,29.73,East,94,16.0,21.0,88,0.00,,,0.00,,2013-03-18 14:12:00,
2013-03-18 10:22:00,28.0,25.0,29.72,East,96,15.0,19.0,88,0.00,,,0.00,,2013-03-18 14:22:00,
2013-03-18 10:32:00,28.0,25.0,29.72,ENE,68,12.0,18.0,88,0.00,,,0.00,,2013-03-18 14:32:00,
2013-03-18 10:42:00,28.0,25.0,29.72,ENE,68,12.0,18.0,88,0.00,,,0.00,,2013-03-18 14:42:00,
2013-03-18 10:52:00,29.0,26.0,29.71,East,96,12.0,15.0,88,0.00,,,0.00,,2013-03-18 14:52:00,
2013-03-18 11:02:00,29.0,26.0,29.70,East,79,11.0,19.0,87,0.00,,,0.00,,2013-03-18 15:02:00,
2013-03-18 11:12:00,29.0,26.0,29.70,East,79,11.0,19.0,87,0.00,,,0.00,,2013-03-18 15:12:00,
2013-03-18 11:22:00,30.0,27.0,29.70,East,89,14.0,18.0,88,0.00,,,0.00,,2013-03-18 15:22:00,
2013-03-18 11:33:00,30.0,27.0,29.69,ESE,117,12.0,18.0,90,0.00,,,0.00,,2013-03-18 15:33:00,
2013-03-18 11:43:00,30.0,27.0,29.69,ESE,117,12.0,18.0,90,0.00,,,0.00,,2013-03-18 15:43:00,
2013-03-18 11:52:00,30.0,28.0,29.67,East,98,13.0,17.0,91,0.00,,,0.00,,2013-03-18 15:52:00,
2013-03-18 12:03:00,30.0,28.0,29.68,SE,127,10.0,18.0,91,0.00,,,0.00,,2013-03-18 16:03:00,
2013-03-18 12:12:00,30.0,28.0,29.68,SE,127,10.0,18.0,91,0.00,,,0.00,,2013-03-18 16:12:00,
2013-03-18 12:23:00,30.0,28.0,29.68,ESE,112,11.0,17.0,91,0.00,,,0.00,,2013-03-18 16:23:00,
2013-03-18 12:33:00,30.0,28.0,29.67,ESE,108,10.0,13.0,92,0.00,,,0.00,,2013-03-18 16:33:00,
2013-03-18 12:42:00,30.0,28.0,29.67,ESE,108,10.0,13.0,92,0.00,,,0.00,,2013-03-18 16:42:00,
2013-03-18 12:53:00,30.0,28.0,29.66,ESE,112,10.0,14.0,93,0.00,,,0.00,,2013-03-18 16:53:00,
2013-03-18 13:03:00,31.0,29.0,29.65,ESE,116,11.0,18.0,93,0.00,,,0.00,,2013-03-18 17:03:00,
2013-03-18 13:12:00,31.0,29.0,29.65,ESE,116,11.0,18.0,93,0.00,,,0.00,,2013-03-18 17:12:00,
2013-03-18 13:22:00,31.0,29.0,29.64,ESE,117,9.0,19.0,94,0.00,,,0.00,,2013-03-18 17:22:00,
2013-03-18 13:32:00,31.0,30.0,29.63,ESE,108,7.0,12.0,95,0.00,,,0.00,,2013-03-18 17:32:00,
2013-03-18 13:42:00,31.0,30.0,29.63,ESE,108,7.0,12.0,95,0.00,,,0.00,,2013-03-18 17:42:00,
2013-03-18 13:52:00,31.0,30.0,29.62,East,88,10.0,14.0,95,0.00,,,0.00,,2013-03-18 17:52:00,
2013-03-18 14:02:00,31.0,29.0,29.61,ESE,108,9.0,13.0,94,0.00,,,0.00,,2013-03-18 18:02:00,
2013-03-18 14:12:00,31.0,29.0,29.61,ESE,108,9.0,13.0,94,0.00,,,0.00,,2013-03-18 18:12:00,
2013-03-18 14:22:00,31.0,29.0,29.60,ESE,113,8.0,13.0,94,0.00,,,0.00,,2013-03-18 18:22:00,
2013-03-18 14:32:00,31.0,30.0,29.59,ESE,117,9.0,11.0,95,0.00,,,0.00,,2013-03-18 18:32:00,
2013-03-18 14:42:00,31.0,30.0,29.59,ESE,117,9.0,11.0,95,0.00,,,0.00,,2013-03-18 18:42:00,
2013-03-18 14:52:00,31.0,30.0,29.59,ESE,108,4.0,10.0,95,0.00,,,0.00,,2013-03-18 18:52:00,
2013-03-18 15:02:00,32.0,31.0,29.58,ESE,105,8.0,12.0,95,0.00,,,0.00,,2013-03-18 19:02:00,
2013-03-18 15:12:00,32.0,31.0,29.58,ESE,105,8.0,12.0,95,0.00,,,0.00,,2013-03-18 19:12:00,
2013-03-18 15:22:00,32.0,31.0,29.57,East,92,6.0,10.0,96,0.00,,,0.00,,2013-03-18 19:22:00,
2013-03-18 15:33:00,32.0,31.0,29.57,SE,124,4.0,6.0,96,0.00,,,0.00,,2013-03-18 19:33:00,
2013-03-18 15:42:00,32.0,31.0,29.57,SE,124,4.0,6.0,96,0.00,,,0.00,,2013-03-18 19:42:00,
2013-03-18 15:52:00,32.0,31.0,29.57,ESE,115,3.0,6.0,96,0.00,,,0.00,,2013-03-18 19:52:00,
2013-03-18 16:03:00,32.0,31.0,29.57,SSE,165,2.0,6.0,96,0.00,,,0.00,,2013-03-18 20:03:00,
2013-03-18 16:12:00,32.0,31.0,29.57,SSE,165,2.0,6.0,96,0.00,,,0.00,,2013-03-18 20:12:00,
2013-03-18 16:23:00,32.0,31.0,29.57,SE,139,1.0,4.0,96,0.00,,,0.00,,2013-03-18 20:23:00,
2013-03-18 16:33:00,32.0,31.0,29.57,SE,146,1.0,2.0,96,0.00,,,0.00,,2013-03-18 20:33:00,
2013-03-18 16:42:00,32.0,31.0,29.57,SE,146,1.0,2.0,96,0.00,,,0.00,,2013-03-18 20:42:00,
2013-03-18 16:52:00,32.0,31.0,29.56,South,169,2.0,3.0,96,0.00,,,0.00,,2013-03-18 20:52:00,
2013-03-18 17:02:00,33.0,32.0,29.55,SE,143,1.0,3.0,96,0.00,,,0.00,,2013-03-18 21:02:00,
2013-03-18 17:12:00,33.0,32.0,29.55,SE,143,1.0,3.0,96,0.00,,,0.00,,2013-03-18 21:12:00,
2013-03-18 17:22:00,33.0,32.0,29.54,ESE,123,2.0,4.0,97,0.00,,,0.00,,2013-03-18 21:22:00,
2013-03-18 17:33:00,33.0,32.0,29.54,SSW,198,1.0,2.0,97,0.00,,,0.00,,2013-03-18 21:33:00,
2013-03-18 17:43:00,33.0,32.0,29.54,SSW,198,1.0,2.0,97,0.00,,,0.00,,2013-03-18 21:43:00,
2013-03-18 17:53:00,33.0,32.0,29.55,SSW,199,0.0,2.0,97,0.00,,,0.00,,2013-03-18 21:53:00,
2013-03-18 18:03:00,33.0,32.0,29.55,SSW,198,2.0,3.0,97,0.00,,,0.00,,2013-03-18 22:03:00,
2013-03-18 18:13:00,33.0,32.0,29.55,SSW,198,2.0,3.0,97,0.00,,,0.00,,2013-03-18 22:13:00,
2013-03-18 18:23:00,33.0,32.0,29.55,SSW,200,1.0,4.0,97,0.00,,,0.00,,2013-03-18 22:23:00,
2013-03-18 18:33:00,33.0,32.0,29.55,SSW,201,2.0,5.0,97,0.00,,,0.00,,2013-03-18 22:33:00,
2013-03-18 18:42:00,33.0,32.0,29.55,SSW,201,2.0,5.0,97,0.00,,,0.00,,2013-03-18 22:42:00,
2013-03-18 18:53:00,33.0,32.0,29.54,WSW,238,3.0,5.0,97,0.00,,,0.00,,2013-03-18 22:53:00,
2013-03-18 19:03:00,33.0,32.0,29.56,WSW,243,3.0,4.0,97,0.00,,,0.00,,2013-03-18 23:03:00,
2013-03-18 19:13:00,33.0,32.0,29.56,WSW,243,3.0,4.0,97,0.00,,,0.00,,2013-03-18 23:13:00,
2013-03-18 19:23:00,33.0,32.0,29.56,West,277,3.0,9.0,97,0.00,,,0.00,,2013-03-18 23:23:00,
2013-03-18 19:33:00,33.0,32.0,29.56,WNW,297,4.0,14.0,97,0.00,,,0.00,,2013-03-18 23:33:00,
2013-03-18 19:42:00,33.0,32.0,29.56,WNW,297,4.0,14.0,97,0.00,,,0.00,,2013-03-18 23:42:00,
2013-03-18 19:53:00,33.0,32.0,29.57,WSW,253,8.0,16.0,97,0.00,,,0.00,,2013-03-18 23:53:00,
2013-03-18 20:03:00,33.0,32.0,29.57,West,259,6.0,11.0,96,0.00,,,0.00,,2013-03-19 00:03:00,
2013-03-18 20:12:00,33.0,32.0,29.57,West,259,6.0,11.0,96,0.00,,,0.00,,2013-03-19 00:12:00,
2013-03-18 20:23:00,33.0,32.0,29.57,West,280,4.0,14.0,97,0.00,,,0.00,,2013-03-19 00:23:00,
2013-03-18 20:32:00,33.0,32.0,29.58,WSW,248,8.0,18.0,97,0.00,,,0.00,,2013-03-19 00:32:00,
2013-03-18 20:42:00,33.0,32.0,29.58,WSW,248,8.0,18.0,97,0.00,,,0.00,,2013-03-19 00:42:00,
2013-03-18 20:52:00,33.0,32.0,29.59,West,262,6.0,12.0,97,0.00,,,0.00,,2013-03-19 00:52:00,
2013-03-18 21:02:00,33.0,32.0,29.59,WNW,298,6.0,14.0,96,0.00,,,0.00,,2013-03-19 01:02:00,
2013-03-18 21:12:00,33.0,32.0,29.59,WNW,298,6.0,14.0,96,0.00,,,0.00,,2013-03-19 01:12:00,
2013-03-18 21:23:00,33.0,32.0,29.59,SW,233,7.0,16.0,95,0.00,,,0.00,,2013-03-19 01:23:00,
2013-03-18 21:32:00,33.0,32.0,29.60,WSW,250,6.0,13.0,95,0.00,,,0.00,,2013-03-19 01:32:00,
2013-03-18 21:43:00,33.0,32.0,29.60,WSW,250,6.0,13.0,95,0.00,,,0.00,,2013-03-19 01:43:00,
2013-03-18 21:53:00,33.0,32.0,29.60,WNW,285,8.0,15.0,95,0.00,,,0.00,,2013-03-19 01:53:00,
2013-03-18 22:03:00,33.0,31.0,29.60,WNW,300,8.0,19.0,94,0.00,,,0.00,,2013-03-19 02:03:00,
2013-03-18 22:13:00,33.0,31.0,29.60,WNW,300,8.0,19.0,94,0.00,,,0.00,,2013-03-19 02:13:00,
2013-03-18 22:23:00,33.0,31.0,29.61,West,280,7.0,13.0,94,0.00,,,0.00,,2013-03-19 02:23:00,
2013-03-18 22:33:00,34.0,32.0,29.60,West,277,10.0,17.0,94,0.00,,,0.00,,2013-03-19 02:33:00,
2013-03-18 22:42:00,34.0,32.0,29.60,West,277,10.0,17.0,94,0.00,,,0.00,,2013-03-19 02:42:00,
2013-03-18 22:53:00,33.0,31.0,29.61,WNW,291,9.0,27.0,94,0.00,,,0.00,,2013-03-19 02:53:00,
2013-03-18 23:02:00,32.0,30.0,29.62,West,281,15.0,26.0,94,0.00,,,0.00,,2013-03-19 03:02:00,
2013-03-18 23:12:00,32.0,30.0,29.62,West,281,15.0,26.0,94,0.00,,,0.00,,2013-03-19 03:12:00,
2013-03-18 23:22:00,32.0,30.0,29.62,WSW,253,7.0,23.0,93,0.00,,,0.00,,2013-03-19 03:22:00,
2013-03-18 23:33:00,31.0,29.0,29.63,West,271,17.0,25.0,91,0.00,,,0.00,,2013-03-19 03:33:00,
2013-03-18 23:43:00,31.0,29.0,29.63,West,271,17.0,25.0,91,0.00,,,0.00,,2013-03-19 03:43:00,
2013-03-18 23:54:00,30.0,28.0,29.63,WSW,245,7.0,20.0,92,0.00,,,0.00,,2013-03-19 03:54:00,